Regional Weather Roundup
Issued by NWS

Home | Current Version | Previous Version | Graphics & Text | Print | Product List | Glossary On
Versions: 1 2 3 4 5 6 7 8 9 10 11 12 13 14 15 16 17 18 19 20 21 22 23 24 25 26 27 28 29 30 31 32 33 34 35 36 37 38 39 40 41 42 43 44 45 46 47 48 49 50
000
ASUS43 KLOT 170209
RWRIL

ILLINOIS REGIONAL WEATHER ROUNDUP
NATIONAL WEATHER SERVICE CHICAGO/ROMEOVILLE IL
900 PM CDT MON OCT 16 2017

NOTE: "FAIR" INDICATES FEW OR NO CLOUDS BELOW 12,000 FEET WITH NO
SIGNIFICANT WEATHER AND/OR OBSTRUCTIONS TO VISIBILITY.

* THESE STATIONS ARE NOT UNDER NWS QUALITY CONTROL. THEY ALSO MAY NOT
  REPORT WEATHER SUCH AS PRECIPITATION OR FOG.

ILZ001-002-007-009-015-016-024-170300-
NORTHWEST ILLINOIS

CITY           SKY/WX    TMP DP  RH WIND       PRES   REMARKS
MOLINE         CLEAR     53  37  54 S7        30.20S
STERLING*      CLEAR     50  39  66 CALM        N/A
SAVANNA*       CLEAR     47  40  76 S5        30.19S
$$

ILZ003-004-008-010-011-017-018-170300-
NORTH CENTRAL ILLINOIS

CITY           SKY/WX    TMP DP  RH WIND       PRES   REMARKS
ROCKFORD       CLEAR     49  38  65 S7        30.22S
FREEPORT*      CLEAR     47  38  73 S8        30.21S
ROCHELLE*      PTCLDY    43  39  87 S7        30.22S
DE KALB*       CLEAR     47  37  68 SW6       30.22S
PERU*          CLEAR     49  38  65 SW6       30.23S
$$

ILZ005-006-012>014-019>023-170300-
NORTHEAST ILLINOIS

CITY           SKY/WX    TMP DP  RH WIND       PRES   REMARKS
CHICAGO-OHARE  CLEAR     54  37  52 SW6       30.21S
CHICAGO-MIDWAY CLEAR     55  38  52 S7        30.22S
AURORA         CLEAR     47  40  76 S5        30.22S
LANSING*       CLEAR     46  40  81 S5        30.24R
JOLIET*        CLEAR     46  44  94 CALM      30.23S
WAUKEGAN       CLEAR     46  39  76 SW5       30.18F
DUPAGE AIRPORT CLEAR     47  40  76 S5        30.21S
KANKAKEE*      CLEAR     53  37  55 SW6       30.26R
WHEELING       CLEAR     50  43  77 S3        30.22S
MORRIS*        CLEAR     50  38  65 S3        30.22S
ROMEOVILLE*    CLEAR     47  39  72 SW6       30.23S
NORTHERLY ISL    N/A     57  36  45 S3          N/A
$$

LMZ740>746-170300-
SOUTHERN LAKE MICHIGAN

STATION/POSITION SKY/WX   TEMP    WIND        PRES    VSBY  WAVE
                          AIR SEA DIR/SP/G                  HT/PER
                          (F)     (DEG/KT/KT) (MB)    (MI)  (FT/S)
SOUTHERN BUOY              60 62  250/ 14/ 16 1022.4F         1/ 3
WILMETTE HARBOR            57 58  210/  6/  8   N/A           1
HARRISON CRIB              61     230/  7/  8   N/A
BURNHAM HARBOR             56     210/  5/  6   N/A
CALUMET HARBOR             55     180/  2/  3 1022.7S
BURNS HARBOR               55     200/  7/  9 1024.0S
MICHIGAN CITY              56     190/  9/ 11   N/A
MICHIGAN CITY 6N           56 58  200/  8/ 10   N/A           2/ 5
ST. JOSEPH                 57 58  180/ 10/ 12 1023.9S         2/ 5
$$

ILZ025>027-034>036-040-047-049-050-058-095>099-170300-
WEST-CENTRAL ILLINOIS

CITY           SKY/WX    TMP DP  RH WIND       PRES   REMARKS
QUINCY         CLEAR     53  38  56 S6        30.26R
GALESBURG*     CLEAR     48  38  69 S3        30.24F
MACOMB*        CLEAR     47  39  73 SW6       30.27S
JACKSONVILLE*  CLEAR     47  39  73 S5        30.27S
PITTSFIELD*    CLEAR     49  43  80 CALM      30.28S
$$

ILZ028>032-037-038-041>044-048-051>054-059>061-170300-
CENTRAL ILLINOIS

CITY           SKY/WX    TMP DP  RH WIND       PRES   REMARKS
PONTIAC        CLEAR     49  41  75 S3        30.25S HAZE
BLOOMINGTON    CLEAR     47  37  68 SW5       30.27S
DECATUR        CLEAR     51  39  63 SW3       30.28R
PEORIA         CLEAR     49  43  80 CALM      30.25S
LACON*         CLEAR     46  40  80 CALM      30.23S
LINCOLN*       CLEAR     49  40  71 CALM      30.27S
SPRINGFIELD    CLEAR     46  42  86 CALM      30.28R
TAYLORVILLE    CLEAR     47  39  75 S6        30.29R
$$

ILZ033-039-045-046-055>057-062-063-170300-
EAST-CENTRAL ILLINOIS

CITY           SKY/WX    TMP DP  RH WIND       PRES   REMARKS
CHAMPAIGN      CLEAR     47  38  71 S9        30.28R
DANVILLE*      CLEAR     49  38  65 CALM      30.25S
RANTOUL*       CLEAR     50  41  71 SW5       30.27R
MATTOON        CLEAR     53  41  63 S6        30.28S
PARIS*         CLEAR     43  39  85 S3        30.30S
$$

ILZ079-100>102-170300-
SOUTHWEST ILLINOIS

CITY           SKY/WX    TMP DP  RH WIND       PRES   REMARKS
ALTON          CLEAR     48  41  76 CALM      30.30R
BELLEVILLE     CLEAR     49  44  83 CALM      30.29R
CAHOKIA*       CLEAR     52  40  63 S6        30.30R
SPARTA*        CLEAR     48  42  79 CALM      30.32S
$$

ILZ064>066-069>071-074>076-080>082-084>086-088>090-092>094-170300-
SOUTH-CENTRAL ILLINOIS

CITY           SKY/WX    TMP DP  RH WIND       PRES   REMARKS
CARBONDALE     CLEAR     46  43  89 S3        30.32S
CAIRO*         CLEAR     43  41  94 CALM      30.33R
EFFINGHAM*     CLEAR     47  43  87 CALM      30.31F
MARION         CLEAR     50  42  73 CALM      30.33S
MT. VERNON     CLEAR     43  43 100 CALM      30.32S
CENTRALIA*     CLEAR     45  42  89 CALM      30.30S
METROPOLIS*    CLEAR     45  41  84 CALM      30.34R
$$

ILZ067-068-072-073-078-083-087-091-170300-
SOUTHEAST ILLINOIS

CITY           SKY/WX    TMP DP  RH WIND       PRES   REMARKS
LAWRENCEVILLE  CLEAR    N/A N/A N/A CALM      30.32R
FLORA*         CLEAR     49  44  83 CALM      30.32R
FAIRFIELD*     CLEAR     48  42  80 CALM      30.31S
HARRISBURG*    CLEAR     45  41  85 CALM      30.33S
ROBINSON*      CLEAR     44  41  88 CALM      30.32S
CARMI*         CLEAR     45  41  87 CALM      30.32S
$$

ABBREVIATIONS USED IN REMARKS
   TC - TEMPERATURE IN CELSIUS
  WCI - WIND CHILL INDEX
   HX - HEAT INDEX
  VSB - VISIBILITY
$$




USA.gov is the U.S. government's official web portal to all federal, state and local government web resources and services.